Norfolk, NE

2:01 PM CDT on May 28, 2017 (GMT -0500)
Stefan Memorial

Weather History for KOFK - February, 2015

Change the Weather History Date:

Saturday, February 21, 2015

  Actual Average Record
Temperature  
Mean Temperature 25 °F 28 °F  
Max Temperature 36 °F 39 °F 74 °F (1995)
Min Temperature 14 °F 18 °F -19 °F (1918)
Degree Days  
Heating Degree Days 40 37  
Month to date heating degree days 865 824  
Since 1 July heating degree days 4696 4846  
Cooling Degree Days 0 0  
Month to date cooling degree days 0 0  
Year to date cooling degree days 0 0  
Moisture  
Dew Point 19 °F    
Average Humidity 73    
Maximum Humidity 92    
Minimum Humidity 53    
Precipitation  
Precipitation T in 0.03 in 0.53 in (2013)
Month to date precipitation 0.27 0.54  
Year to date precipitation 0.84 1.13  
Snow  
Snow T in 0.20 in - ()
Month to date snowfall 3.9 4.3  
Since 1 July snowfall 20.2 21.6  
Snow Depth 0.00 in    
Sea Level Pressure  
Sea Level Pressure 30.13 in    
Wind  
Wind Speed 13 mph (NNW)    
Max Wind Speed 25 mph    
Max Gust Speed 29 mph    
Visibility 9 miles    
Events      
T = Trace of Precipitation, MM = Missing Value Source: NWS Daily Summary

Daily Weather History Graph

Daily Weather History Graph

Search for Another Location

Airport or City:

Trip Planner

Search our weather history database for the weather conditions in past years. The results will help you decide how hot, cold, wet, or windy it might be!

Date:

Astronomy

Feb. 21, 2015 Rise Set
Actual Time 7:17 AM CST 6:09 PM CST
Civil Twilight 6:49 AM CST 6:38 PM CST
Nautical Twilight 6:16 AM CST 7:10 PM CST
Astronomical Twilight 5:44 AM CST 7:43 PM CST
Moon 8:46 AM CST (2/21) 9:50 PM CST (2/21)
Length of Visible Light 11h 49m
Length of Day
10h 52m
Waxing Crescent, 11% of the Moon is Illuminated
Feb 21
Waxing Crescent
Feb 25
First Quarter
Mar 5
Full
Mar 13
Last Quarter
Mar 20
New

Hourly Weather History & Observations

Time (CST) Temp. Windchill Dew Point Humidity Pressure Visibility Wind Dir Wind Speed Gust Speed Precip Events Conditions
12:56 AM 34.0 °F 28.0 °F 28.9 °F 82% 29.89 in 10.0 mi NNW 6.9 mph - N/A   Scattered Clouds
1:56 AM 32.0 °F 24.8 °F 28.0 °F 85% 29.90 in 10.0 mi NW 8.1 mph - N/A   Clear
2:56 AM 30.9 °F 26.2 °F 28.0 °F 89% 29.91 in 9.0 mi West 4.6 mph - N/A   Scattered Clouds
3:56 AM 28.0 °F 24.2 °F 26.1 °F 92% 29.91 in 7.0 mi Variable 3.5 mph - N/A   Scattered Clouds
4:56 AM 30.0 °F 26.5 °F 28.0 °F 92% 29.93 in 7.0 mi West 3.5 mph - N/A   Overcast
5:45 AM 30.9 °F 27.5 °F 28.9 °F 92% 29.91 in 6.0 mi SSW 3.5 mph - N/A   Overcast
5:53 AM 32.0 °F - 30.2 °F 93% 29.91 in 6.0 mi Calm Calm - N/A   Overcast
5:56 AM 32.0 °F 28.7 °F 30.0 °F 92% 29.95 in 6.0 mi SW 3.5 mph - N/A   Overcast
6:56 AM 32.0 °F 26.4 °F 30.0 °F 92% 29.98 in 6.0 mi North 5.8 mph - N/A   Overcast
7:11 AM 32.0 °F 25.6 °F 28.9 °F 88% 29.94 in 10.0 mi NNE 6.9 mph - N/A   Overcast
7:56 AM 30.9 °F 22.8 °F 27.0 °F 85% 30.01 in 10.0 mi North 9.2 mph - N/A   Overcast
8:56 AM 30.9 °F 22.2 °F 26.1 °F 82% 30.04 in 10.0 mi North 10.4 mph - N/A   Overcast
9:04 AM 30.9 °F 21.7 °F 26.1 °F 82% 30.01 in 10.0 mi North 11.5 mph - N/A   Overcast
9:56 AM 28.9 °F 19.8 °F 26.1 °F 89% 30.09 in 8.0 mi North 10.4 mph - N/A   Overcast
10:42 AM 28.0 °F 18.6 °F 24.1 °F 85% 30.06 in 9.0 mi North 10.4 mph - 0.00 in   Overcast
10:56 AM 28.0 °F 16.5 °F 23.0 °F 81% 30.12 in 10.0 mi North 15.0 mph - 0.00 in   Overcast
11:40 AM 28.0 °F 15.3 °F 21.9 °F 78% 30.09 in 10.0 mi North 18.4 mph - N/A   Overcast
11:52 AM 28.4 °F 16.6 °F 21.2 °F 74% 30.09 in 10.0 mi North 16.1 mph - N/A   Overcast
11:56 AM 28.0 °F 15.3 °F 21.0 °F 75% 30.14 in 10.0 mi NNW 18.4 mph - N/A   Overcast
12:16 PM 28.0 °F 14.9 °F 19.0 °F 69% 30.10 in 10.0 mi NNW 19.6 mph 25.3 mph N/A   Overcast
12:56 PM 27.0 °F 13.5 °F 19.0 °F 72% 30.17 in 10.0 mi NNW 19.6 mph - N/A   Overcast
1:56 PM 28.0 °F 15.3 °F 17.1 °F 63% 30.18 in 10.0 mi NNW 18.4 mph - N/A   Overcast
2:56 PM 28.0 °F 14.3 °F 14.0 °F 56% 30.20 in 10.0 mi NNW 21.9 mph 28.8 mph N/A   Overcast
3:56 PM 27.0 °F 13.5 °F 12.0 °F 53% 30.23 in 10.0 mi North 19.6 mph - N/A   Overcast
4:56 PM 24.1 °F 9.0 °F 10.9 °F 57% 30.27 in 10.0 mi NNW 21.9 mph - N/A   Overcast
5:56 PM 21.9 °F 8.7 °F 10.0 °F 60% 30.30 in 10.0 mi North 15.0 mph 23.0 mph N/A   Mostly Cloudy
6:56 PM 21.0 °F 7.6 °F 10.0 °F 63% 30.34 in 10.0 mi NNW 15.0 mph - N/A   Clear
7:56 PM 19.0 °F 4.5 °F 9.0 °F 65% 30.38 in 10.0 mi NNW 16.1 mph - N/A   Partly Cloudy
8:56 PM 18.0 °F 3.1 °F 6.1 °F 60% 30.42 in 10.0 mi North 16.1 mph 27.6 mph N/A   Overcast
9:56 PM 17.1 °F 0.6 °F 3.0 °F 54% 30.44 in 10.0 mi North 19.6 mph 27.6 mph N/A   Mostly Cloudy
10:56 PM 15.1 °F -1.6 °F 1.9 °F 56% 30.48 in 10.0 mi North 18.4 mph - N/A   Overcast
11:56 PM 14.0 °F -1.4 °F 1.9 °F 59% 30.51 in 10.0 mi North 15.0 mph - N/A   Overcast